2019-064A

Last updated on Thu Sep 26 2019 00:02:05 GMT+0000 (Coordinated Universal Time)

1 44550U 19064A 19268.70925376 -.00000644 00000-0 00000+0 0 9997 2 44550 51.6597 222.7767 0028315 205.5090 211.6237 15.70363262 25
UTC large
Height (km)
Speed (km/s)
/
Latitude / Longitude
Inclination (degrees)
Orbital Period (minutes)
Azimuth
Elevation
Range (km)
Doppler Factor

Next 0 passes for location: London (51.5072 / 0.1276)

Sorry there are no passes over London.